This is the latest recevied weather packets stored in our database for station/object WX7FGZ-5. If no packets are shown the sender has not sent any weather packets the latest 10 day(s).
| Time | Temp. | Humidity | Pressure | Rain* | Wind** | Luminosity | Snow |
|---|---|---|---|---|---|---|---|
| 1777916409 | 11.11° C | 52% | 1019.6 hPa | 0 mm | - | 508 W/m² | - |
| 1777916102 | 11.11° C | 50% | 1019.7 hPa | 0 mm | - | 403 W/m² | - |
| 1777915805 | 11.11° C | 52% | 1019.6 hPa | 0 mm | - | 387 W/m² | - |
| 1777914904 | 10.56° C | 48% | 1020.2 hPa | 0 mm | - | 323 W/m² | - |
| 1777914603 | 10.56° C | 50% | 1020.2 hPa | 0 mm | - | 299 W/m² | - |
| 1777914004 | 10.56° C | 52% | 1019.9 hPa | 0 mm | - | 325 W/m² | - |
| 1777912803 | 10° C | 56% | 1020.7 hPa | 0 mm | - | 399 W/m² | - |
| 1777912502 | 10° C | 56% | 1020.7 hPa | 0 mm | - | 397 W/m² | - |
| 1777911906 | 10° C | 56% | 1020.4 hPa | 0 mm | - | 329 W/m² | - |
| 1777911603 | 10° C | 55% | 1020.3 hPa | 0 mm | - | 288 W/m² | - |
| 1777911181 | 10° C | 55% | 1020.6 hPa | 0 mm | - | 265 W/m² | - |
| 1777910883 | 9.44° C | 56% | 1020.3 hPa | 0 mm | - | 278 W/m² | - |
| 1777910582 | 9.44° C | 57% | 1020.5 hPa | 0 mm | - | 265 W/m² | - |
| 1777910282 | 9.44° C | 56% | 1020.5 hPa | 0 mm | - | 271 W/m² | - |
| 1777909682 | 9.44° C | 58% | 1020.5 hPa | 0 mm | - | 260 W/m² | - |
| 1777909081 | 9.44° C | 57% | 1020.4 hPa | 0 mm | - | 302 W/m² | - |
| 1777908782 | 9.44° C | 57% | 1020.4 hPa | 0 mm | - | 267 W/m² | - |
| 1777908043 | 8.89° C | 58% | 1020.5 hPa | 0 mm | - | 190 W/m² | - |
| 1777907882 | 8.89° C | 58% | 1020.5 hPa | 0 mm | - | 190 W/m² | - |
| 1777907482 | 8.89° C | 56% | 1020.3 hPa | 0 mm | - | 158 W/m² | - |
| 1777907281 | 8.89° C | 56% | 1020.3 hPa | 0 mm | - | 158 W/m² | - |
| 1777906982 | 8.89° C | 55% | 1020.3 hPa | 0 mm | - | 165 W/m² | - |
| 1777906382 | 8.33° C | 54% | 1020.6 hPa | 0 mm | - | 171 W/m² | - |
| 1777906314 | 8.33° C | 53% | 1020.5 hPa | 0 mm | - | 144 W/m² | - |
| 1777906082 | 8.33° C | 53% | 1020.5 hPa | 0 mm | - | 144 W/m² | - |
* Rain latest hour (hover to see other rain measurements)
** Current wind speed in m/s (hover to see current wind gust speed)